Regional Weather Roundup
Issued by NWS Wakefield, VA

Home | Current Version | Previous Version | Text Only | Print | Product List | Glossary On
Versions: 1 2 3 4 5 6 7 8 9 10 11 12 13 14 15 16 17 18 19 20 21 22 23 24 25 26 27
000
ASUS41 KAKQ 241210
RWRAKQ

REGIONAL WEATHER ROUNDUP
NATIONAL WEATHER SERVICE WAKEFIELD VA
800 AM EDT THU APR 24 2014

Note: "fair" indicates few or no clouds below 12,000 feet with no
significant weather and/or obstructions to visibility. * = Denotes
station may not report precipitation (e.g., rain,snow,etc.),
thunder or fog.

VAZ042-051-052>054-056-241300-
NORTHERN VIRGINIA

CITY           SKY/WX    TMP DP  RH WIND       PRES   REMARKS
WASH NATIONAL  SUNNY     48  24  39 NW16G22   30.12R
DULLES         MOSUNNY   44  21  40 NW9       30.12R
FORT BELVOIR   SUNNY     47  21  35 N9        30.12R
QUANTICO       MOSUNNY   48  22  35 N10G18    30.13R
FREDERICKSBRG* SUNNY     48  25  40 NW8       30.12R
STAFFORD*      SUNNY     47  28  48 NW8       30.16R
WARRENTON      SUNNY     48  32  53 NW10      30.12R
CULPEPER*      MOSUNNY   48  21  34 N6        30.14R
MANASSAS*      SUNNY     46  25  42 N9        30.13R
LEESBURG*      SUNNY     45  27  49 N12G20    30.13R
WINCHESTER     SUNNY     43  21  42 NW9       30.13R
$$

VAZ048-049-060>072-079>083-241300-
CENTRAL AND SOUTH CENTRAL VIRGINIA...AND NORTH CENTRAL NORTH CAROLINA

CITY           SKY/WX    TMP DP  RH WIND       PRES   REMARKS
RICHMOND       MOSUNNY   48  29  47 N9        30.12R
CHESTERFIELD*  SUNNY     46  28  49 NW5       30.13R
HANOVER        SUNNY     44  32  62 NW3       30.14R
TAPPAHANNOCK*  SUNNY     47  26  44 W6        30.12R
CHARLOTTSVILLE MOSUNNY   46  27  47 S3        30.12R
ORANGE*        MOSUNNY   45  32  61 CALM      30.14R
LOUISA*        MOSUNNY   45  34  65 CALM      30.12R
FARMVILLE*     MOSUNNY   43  36  75 CALM      30.11R
SOUTH HILL*    SUNNY     45  39  81 CALM      30.17R
ROANOKE RAPIDS SUNNY     46  39  76 CALM      30.12R
RALEIGH        MOSUNNY   48  39  71 CALM      30.12R
$$

VAZ088>098-241300-
SOUTHEAST VIRGINIA

CITY           SKY/WX    TMP DP  RH WIND       PRES   REMARKS
NORFOLK        SUNNY     51  31  46 N8G20     30.09R
VIRGINIA BEACH MOSUNNY   52  29  41 N15       30.08R
NORFOLK NAVAL  MOSUNNY   51  29  42 N16       30.11R
WEST POINT*    SUNNY     49  31  50 NW6       30.13R
NEWPORT NEWS   SUNNY     53  29  39 N12       30.11R
LANGLEY AFB    SUNNY     50  29  44 N14       30.11R
FORT EUSTIS    SUNNY     50  33  53 N12G18    30.09R
WILLIAMSBURG*  SUNNY     46  34  61 N9G16     30.12R
FRANKLIN*      SUNNY     48  34  57 N6        30.12R
WAKEFIELD      SUNNY     47  30  51 N7        30.12R
$$

VAZ020-022-025-037-045-241300-
WESTERN AND SOUTHWEST VIRGINIA

CITY           SKY/WX    TMP DP  RH WIND       PRES   REMARKS
STAUNTON*      MOSUNNY   38  31  77 CALM      30.14R
HOT SPRINGS VA CLOUDY    36  21  55 NW9       30.11R
LYNCHBURG      MOSUNNY   54  32  43 N6        30.12R
DANVILLE       SUNNY     44  36  73 CALM      30.12R
MARTINSVILLE   SUNNY     40  35  85 CALM      30.14R
ROANOKE        PTSUNNY   45  34  65 CALM      30.13R
BLACKSBURG     MOSUNNY   41  37  87 NW3       30.13R
DUBLIN*        MOSUNNY   40  34  79 CALM      30.11R
MARION*        SUNNY     41  32  70 NE5       30.11R
HILLSVILLE*    SUNNY     43  27  52 CALM      30.11F
RICHLANDS*     SUNNY     47  32  55 E6        30.07R
WISE*          MOSUNNY   46  30  53 CALM      30.08R
ABINGDON*      SUNNY     44  32  63 E6        30.06S
$$

MDZ021>025-VAZ099-100-241300-
SOUTHERN MARYLAND AND THE DELMARVA PENINSULA

CITY           SKY/WX    TMP DP  RH WIND       PRES   REMARKS
PATUXENT RIVER SUNNY     48  25  40 NW17      30.08R
BAY BRIDGE APT SUNNY     46  28  49 NW15      30.09R
LEONARDTOWN    SUNNY     46  25  42 NW7       30.10R
DOVER          SUNNY     46  26  46 NW17      30.01R
GEORGETOWN     SUNNY     48  26  42 VRB7G16   30.05R
EASTON         SUNNY     48  30  49 NW13G23   30.11R
CAMBRIDGE      SUNNY     50  28  43 NW9G21    30.08R
SALISBURY      SUNNY     50  29  44 NW9       30.06R
OCEAN CITY     SUNNY     47  31  53 NW10      30.05R
WALLOPS ISLAND MOSUNNY   50  33  52 NW10      30.07R
ACCOMACK*      SUNNY     50  28  43 NW12G22   30.07R
$$

NCZ012>017-030>032-241300-
EASTERN NORTH CAROLINA

CITY           SKY/WX    TMP DP  RH WIND       PRES   REMARKS
ELIZABETH CITY SUNNY     51  32  48 NW13      30.10R
AHOSKIE*       SUNNY     46  35  66 N5        30.13R
EDENTON*       SUNNY     47  36  66 N7        30.11R
CURRITUCK*     SUNNY     50  32  50 CALM      30.10R
KILL DEVIL HLS SUNNY     51  37  60 N8        30.08R
MANTEO         SUNNY     51  36  57 N12       30.09R
CAPE HATTERAS  SUNNY     53  35  50 VRB7      30.09R
GOLDSBORO      SUNNY     50  35  56 NE8       30.10R
WASHINGTON     SUNNY     49  38  67 NE6       30.12R
GREENVILLE     SUNNY     48  36  61 NE7       30.13R
NEW BERN       SUNNY     53  38  56 NE10      30.12R
WILMINGTON     SUNNY     54  41  61 NE10      30.09R
$$

VAZ048-241300-
ELSEWHERE

CITY           SKY/WX    TMP DP  RH WIND       PRES   REMARKS
HARRISBURG PA  SUNNY     45  16  31 NW10      30.08R
BALTIMORE      MOSUNNY   45  25  45 W10       30.09R
ANNAPOLIS      SUNNY     47  29  49 NW12      30.09R
ANDREWS AFB    SUNNY     46  22  39 NW17      30.10R
WILMINGTON DE  SUNNY     45  21  38 W14       30.06R
PHILADELPHIA   SUNNY     46  15  28 NW17G23   30.04R
WILDWOOD NJ*   SUNNY     46  21  36 NW15G23   30.03R
ATLANTIC CITY  SUNNY     45  23  42 NW20G25   29.99R
HENDERSON NC   SUNNY     46  34  64 CALM      30.12R
GREENSBORO     MOSUNNY   49  33  54 E5        30.11R
ROCKY MOUNT    SUNNY     49  39  68 CALM      30.12R
FAYETTEVILLE   SUNNY     50  40  68 NE8       30.11R
CHARLOTTE      MOSUNNY   53  33  46 E7        30.11R
$$

VAZ100-241300-
MARINE

STATION/POSITION TIME  TEMP    WIND        PRES    WAVE   SWELL
                       AIR SEA DIR/SP/G            HT/PER HT/PER
                 (UTC) (F)     (DEG/KT/KT) (MB)    (FT/S) (FT/S)
44066 TX TWR #4  1200   44 45  300/ 25/ 29 1010.7R   7/ 7
CAPE MAY NJ      1200   49 57  330/ 10/ 23 1016.3S
LEWES DE         1200   47 50  320/ 20/ 23 1016.3S
15NM E FENWICK I 1200   46 46              1016.0R   4/ 5
OCEAN-CITY-INLET 1200   46 48  320/ 12/ 15 1016.9R
WACHAPREAGUE VA  1200   51 55  310/  3/  6 1017.8R
THOMAS POINT MD  1200   45 53  310/ 15/ 16 1019.5R
GOOSES REEF MD   1200   47     330/ 16/ 19   N/A
COVE POINT MD    1200   46     340/ 23/ 26 1018.6R
SOLOMONS ISLAND  1200      54                N/A
BISHOPS HEAD MD  1200   48 51  330/ 15/ 17 1018.3R
PINEY POINT MD   1200          340/ 14/ 15   N/A
POTOMAC MD       1200   48     340/ 16/ 19 1018.2R
CAMBRIDGE MD     1200   48 56  310/ 16/ 19 1018.1R
LEWISETTA VA     1200   49 56  330/ 12/ 17 1018.9R
RAPPAHANNOCK LGT 1200          320/ 22/ 26 1018.9R
STINGRAY PT      1200   49     340/ 14/ 17 1018.9R
YORK RVR RNG VA  1200   48     330/ 13/ 16 1018.5R
YORKTOWN VA      1200   49 56  320/ 13/ 14 1019.1R
JAMESTOWN VA     1200   48     350/  8/ 12   N/A
DOMINION TERM VA 1200   51     350/  2/  8 1019.1R
KIPTOPEKE VA     1200      55  350/ 17/ 21   N/A
CHES BAY BRIDGE  1200   50 53  330/ 18/ 21 1018.9R
CAPE HENRY VA    1200   50     330/ 17/ 20   N/A
CHESAPEAKE LGHT  1100   49     340/ 18/ 19 1018.4R
WILLOUBY STN VA  1200   49     340/ 17/ 20 1018.2R
S CRANEY ISL VA  1200          330/ 12/ 16 1019.1R
CAPE HENRY BUOY  1200      47                N/A     3/ 5
1ST LANDING BUOY 1200      49                N/A     2/14   2/14
64NM E OF VA BCH 1200   49 48  340/ 17/ 23 1017.2R   6/ 7   2/13
DUCK PIER NC     1200   50 51  340/ 13/ 16 1017.7R
44100 DUCK FRF   1200      49                N/A     4/ 6
44056 DUCK FRF   1200      51                N/A     4/ 6
OREGON INLET NC  1200   51 55  350/ 12/ 16 1018.8R
HATTERAS NC      1200   53 61   10/ 15/ 18 1019.0R
DIAMOND SHLS NC  1200   54 74   10/ 19/ 25 1017.9R   7/ 6   3/10
CAPE LOOKOUT NC  1100   56      20/ 14/ 17 1017.9R
FRYING PAN SHLS  1200   66 68   50/ 16/ 17 1017.0R   4/ 8   2/ 8
$$



USA.gov is the U.S. government's official web portal to all federal, state and local government web resources and services.